ASIASAT 5

Last updated on Thu Sep 24 2026 00:03:16 GMT+0000 (Coordinated Universal Time)

1 35696U 09042A 26266.68635137 -.00000308 00000+0 00000+0 0 9995 2 35696 0.0221 126.3911 0001642 51.6635 172.0708 1.00269518 62700
UTC large
Height (km)
Speed (km/s)
/
Latitude / Longitude
Inclination (degrees)
Orbital Period (minutes)
Azimuth
Elevation
Range (km)
Doppler Factor

Next 0 passes for location: London (51.5072 / 0.1276)

No passes found over London.
ASIASAT 5